EST,Max TemperatureF,Mean TemperatureF,Min TemperatureF,Max Dew PointF,MeanDew PointF,Min DewpointF,Max Humidity, Mean Humidity, Min Humidity, Max Sea Level PressureIn, Mean Sea Level PressureIn, Min Sea Level PressureIn, Max VisibilityMiles, Mean VisibilityMiles, Min VisibilityMiles, Max Wind SpeedMPH, Mean Wind SpeedMPH, Max Gust SpeedMPH,PrecipitationIn, CloudCover, Events, WindDirDegrees
2013-2-1,32,21,10,30,6,-1,94,62,48,30.36,30.27,29.85,10,9,0,20,10,34,0.00,3,Snow,280
2013-2-2,31,22,13,31,20,9,100,88,71,30.31,30.14,30.00,10,6,1,8,2,,0.00,6,Snow,199
2013-2-3,30,28,25,29,25,18,94,84,67,30.13,29.99,29.91,10,9,2,12,6,23,0.00,8,Snow,272
2013-2-4,46,34,21,32,24,19,91,67,43,30.11,29.98,29.84,10,10,2,14,4,30,0.00,6,Rain,215
2013-2-5,50,45,40,37,33,28,73,61,52,29.98,29.90,29.87,10,10,10,15,6,26,0.00,7,,252
2013-2-6,48,41,34,32,30,28,84,66,47,30.23,30.16,30.00,10,10,10,8,4,22,0.00,4,,12
2013-2-7,61,47,33,37,32,29,88,57,34,30.19,30.06,29.91,10,10,7,12,4,18,0.00,2,,133
2013-2-8,48,40,33,44,34,25,96,78,64,30.26,30.03,29.83,10,10,5,14,7,24,0.00,7,Rain,287
2013-2-9,43,34,26,26,20,15,79,58,32,30.38,30.31,30.22,10,10,10,7,3,,0.00,2,,48
2013-2-10,61,46,30,42,26,15,83,55,17,30.23,30.10,29.90,10,10,5,17,5,34,0.00,4,Rain,157
2013-2-11,59,51,43,51,36,21,84,54,30,30.09,29.94,29.89,10,10,10,23,11,33,0.00,3,Rain,245
2013-2-12,51,44,36,29,25,22,65,49,33,30.17,30.06,29.90,10,10,10,9,4,,0.00,0,,257
2013-2-13,41,37,32,35,30,24,94,76,51,29.94,29.78,29.66,10,9,4,14,3,17,0.00,8,Rain-Snow,328
2013-2-14,51,42,32,32,31,30,95,70,47,30.00,29.96,29.91,10,10,10,13,6,22,0.00,4,,222
2013-2-15,44,38,32,36,33,30,96,86,63,30.09,30.05,29.97,10,10,5,10,3,,0.00,6,Snow,295
2013-2-16,33,28,23,31,20,10,94,72,45,30.07,30.02,29.97,10,10,1,10,6,17,0.00,7,Snow,328
2013-2-17,31,24,18,16,8,4,79,52,32,30.23,30.16,30.06,10,10,4,12,6,18,0.00,4,Snow,294
2013-2-18,57,38,20,31,21,8,64,46,35,30.23,30.11,29.86,10,10,10,17,7,22,0.00,0,,168
2013-2-19,50,44,38,38,31,16,91,62,35,29.94,29.86,29.82,10,10,3,29,14,37,0.00,7,Rain,237
2013-2-20,35,28,21,17,14,11,70,55,39,30.23,30.19,30.10,10,10,10,13,7,20,0.00,2,,299
2013-2-21,38,27,16,24,15,12,84,59,39,30.31,30.21,30.10,10,10,7,12,5,9,0.00,1,Snow,56
2013-2-22,61,46,31,46,41,26,99,74,54,30.09,29.97,29.92,10,10,5,20,8,34,0.00,5,,188
2013-2-23,54,47,39,46,39,30,93,72,51,29.96,29.91,29.86,10,10,10,8,5,,0.00,4,,284
2013-2-24,47,39,31,29,24,20,83,59,34,30.11,30.03,29.90,10,10,10,12,4,17,0.00,0,,312
2013-2-25,50,36,23,25,22,21,89,59,33,30.13,30.04,29.88,10,10,10,10,6,,0.00,0,,58
2013-2-26,53,46,39,46,38,24,97,73,54,29.89,29.61,29.43,10,9,2,18,10,28,0.00,7,Rain,141
2013-2-27,44,38,33,36,33,32,95,79,66,29.79,29.72,29.59,10,10,5,16,10,29,0.00,8,Rain-Snow,247
2013-2-28,33,32,31,32,30,26,99,89,77,29.92,29.82,29.73,10,8,2,15,8,23,0.00,8,Snow,261